Regional Weather Roundup
Issued by NWS

Home | Current Version | Previous Version | Text Only | Print | Product List | Glossary Off
Versions: 1 2 3 4 5 6 7 8 9 10 11 12 13 14 15 16 17 18 19 20 21 22 23 24 25 26 27 28 29 30 31 32 33 34 35 36 37 38 39 40 41 42 43 44 45 46 47 48 49 50

000
ASUS43 KOAX 121610
RWRNE

WEATHER ROUNDUP FOR NEBRASKA
NATIONAL WEATHER SERVICE OMAHA NE
1000 AM CST TUE DEC 12 2017

NOTES: SATELLITE DATA IS BEING USED TO AUGMENT CLOUD COVER ABOVE
       12000 FEET.
       "FAIR" INDICATES FEW OR NO CLOUDS BELOW 12,000 FEET WITH NO
       SIGNIFICANT WEATHER AND/OR OBSTRUCTIONS TO VISIBILITY.


NEZ001>004-019>022-054>056-121700-
NEBRASKA PANHANDLE

CITY           SKY/WX    TMP DP  RH WIND       PRES   REMARKS
SCOTTSBLUFF    CLOUDY    34  19  54 NW10      30.27S WCI  26
ALLIANCE       SUNNY     34  23  64 W6        30.22F WCI  29
CHADRON        SUNNY     38  22  52 W12       30.22F WCI  30
GORDON         FAIR      37  24  60 W7        30.19F WCI  31
KIMBALL        SUNNY     47  15  28 W13       30.28S
SIDNEY         SUNNY     45  17  32 W13       30.27S
$$

NEZ057>060-069>072-079>082-121700-
SOUTHWEST NEBRASKA

CITY           SKY/WX    TMP DP  RH WIND       PRES   REMARKS
IMPERIAL       SUNNY     39  18  42 W10       30.28S WCI  32
LEXINGTON      SUNNY     28  23  81 W3        30.27F
MCCOOK         SUNNY     28  17  63 W12       30.29F WCI  18
OGALLALA       SUNNY     30  20  66 SW9       30.27F WCI  21
$$

NEZ005>010-023>029-035>040-094-121700-
NORTH CENTRAL NEBRASKA

CITY           SKY/WX    TMP DP  RH WIND       PRES   REMARKS
AINSWORTH      SUNNY     32  26  78 W8        30.20F WCI  25
BROKEN BOW     SUNNY     32  25  75 SW3       30.23F
O`NEILL        SUNNY     33  29  85 W9        30.22F WCI  25
ORD            SUNNY     32  25  75 W6        30.24F WCI  26
THEDFORD       SUNNY     32  25  74 W10       30.22F WCI  24
$$

NEZ041-046>049-061>064-073>077-083>087-121700-
SOUTH CENTRAL NEBRASKA

CITY           SKY/WX    TMP DP  RH WIND       PRES   REMARKS
GRAND ISLAND   SUNNY     34  27  75 W6        30.28F WCI  29
AURORA         SUNNY     34  28  77 W10       30.28S WCI  26
HASTINGS       SUNNY     33  25  72 W9        30.30S WCI  25
HEBRON         MOSUNNY   36  29  76 W9        30.33F WCI  29
HOLDREGE       SUNNY     32  26  78 W7        30.29F WCI  26
KEARNEY        SUNNY     35  25  66 W6        30.29F WCI  30
YORK           CLOUDY    32  30  93 W8        30.29S WCI  25
$$

NEZ011>018-030>034-042>045-121700-
NORTHEAST NEBRASKA

CITY           SKY/WX    TMP DP  RH WIND       PRES   REMARKS
NORFOLK        CLOUDY    25  24  96 CALM      30.22F
ALBION         SUNNY     35  29  78 NW6       30.25S WCI  30
BLAIR          SUNNY     23  19  81 CALM      30.28F
COLUMBUS       CLOUDY    25  23  92 SW3       30.28F
FREMONT        SUNNY     25  20  83 CALM      30.29F
TEKAMAH        SUNNY     22  15  75 SW5       30.30F WCI  16
WAYNE          CLOUDY    25  23  91 CALM      30.24F
$$

NEZ050>053-065>068-078-088>093-121700-
SOUTHEAST NEBRASKA

CITY           SKY/WX    TMP DP  RH WIND       PRES   REMARKS
LINCOLN        CLOUDY    27  22  81 SW5       30.33S WCI  22
OMAHA EPPLEY   MOSUNNY   24  16  71 CALM      30.32S
BEATRICE       MOSUNNY   28  23  81 CALM      30.33R
FALLS CITY     SUNNY     26  16  65 NW9       30.34S WCI  17
NEBRASKA CITY  SUNNY     25  20  80 NW5       30.33S WCI  20
PLATTSMOUTH    MOSUNNY   24  19  78 W3        30.32R
$$

NEZ044-045-051>053-067-121700-
OMAHA AREA

CITY           SKY/WX    TMP DP  RH WIND       PRES   REMARKS
OMAHA EPPLEY   MOSUNNY   24  16  71 CALM      30.32S
BLAIR          SUNNY     23  19  81 CALM      30.28F
FREMONT        SUNNY     25  20  83 CALM      30.29F
MILLARD        SUNNY     26  18  72 CALM      30.32S
OFFUTT AFB     SUNNY     24  16  71 W5        30.32R WCI  18
PLATTSMOUTH    MOSUNNY   24  19  78 W3        30.32R
WAHOO          FAIR      26  21  79 CALM      30.30F
$$



USA.gov is the U.S. government's official web portal to all federal, state and local government web resources and services.